STARLINK-31683, 59573

Orbit data source: Space-Track

STARLINK-31683, 59573 is a payload satellite owned by SpaceX/Seattle (US) in LEO that was launched on Tue, 23 Apr 2024 UTC via an FALCON 9 launch vehicle from the Air Force Eastern Test Range (AFETR). Payload-class satellites include a variety of spacecraft equipped with specific instruments for various scientific and technological missions. These include communications satellites like Starlink; space stations such as the ISS; scientific satellites like the Hubble; Earth observation satellites from companies like Planet Labs, Umbra, and HawkEye 360; GPS; miniature CubeSats for education and research; and military/defense satellites.

Loading next visibility...
Identifier
59573, 2024-076K
Orbit
LEO
Last TLE update
22 hours ago
Origin
Manufacturer
SpaceX/Seattle
Mission
Operational spacecraft
Bus & Motor
STARLINK V2M, Unknown motor
Mass
730 kg wet, ~700 kg dry
Launch date (UTC)
2024-04-23 (1 year ago)
Launch vehicle
FALCON 9
Launch site
Air Force Eastern Test Range (AFETR)
Object type
Payload
Rocket body
Debris
Shape & HBR
Unknown
Radar Cross Section
Large (>1 m²)

Expand to show TLE details & history

TLE from 22 hours ago
0 STARLINK-31683
1 59573U 24076K   25181.49118052  .00002889  00000-0  11452-3 0  9998
2 59573  43.0007 353.1508 0001431 270.0451  90.0237 15.27568050 67933
Epoch: 2025-06-30T11:47Z
TLE epoch observation values (Epoch: 2025-06-30T11:47:17.996Z)
Latitude
-0.00001°
Longitude
-102.47442°
Altitude
482.861 km
Speed
7.626 km/s
True Right ascension
23h 32m 36s
True Declination
0° 00' 00"
Sunlit
Object was in daylight at epoch
Visualization orbit readout
Latitude
42.58175°
Longitude
-6.26808°
Altitude
487.073 km
Speed
7.627 km/s
Apparent Right ascension
07h 51m 26s
Apparent Declination
3° 37' 38"
Sunlit
Object is in daylight
Visualization observer readout
Local Sidereal Time
21:49:37
Azimuth
39.098° NE
Elevation
-38.705°
Doppler factor
1
Orbital elements
Apogee altitude
486.012 km
Perigee altitude
484.048 km
Semi-major axis
6,863.167 km
Eccentricity
0.00014
Inclination
43.0007°
RAAN
353.1508°
Arg. of periapsis
270.0451°
True anomaly
Unknown
Mean anomaly
90.0237°
Eccentric anomaly
Unknown
Mean motion
3.8173 °/min
Orbital period
94.31 mins
BSTAR
0.00011452
Loading maneuver chart data...
Loading SW <> Apogee altitude chart data...
Loading historical data...
Loading historical data...
Loading historical data...
Loading historical data...
Loading historical data...
Loading historical data...
Loading historical data...

STARLINK-31683 Visibility forecast

Observer location: undefined°, undefined°

Span
Click to sort rows by Start time (UTC) header in descending order
Start Az.
Max El. time (UTC)
Max El. Az.
Max El.
End time (UTC)
End Az.
6 mins2025-07-01 14:40:13.324Z222.443° SW2025-07-01 14:43:13.324Z167.976° S33.293°2025-07-01 14:46:13.324Z85.718° E
5 mins2025-07-01 16:20:13.324Z271.996° WNW2025-07-01 16:22:13.324Z326.097° NNW41.327°2025-07-01 16:25:13.324Z68.011° E
6 mins2025-07-01 17:59:13.324Z293.358° NW2025-07-01 18:01:13.324Z336.197° NNW37.842°2025-07-01 18:05:13.324Z85.445° E
6 mins2025-07-01 19:38:13.324Z280.302° WNW2025-07-01 19:40:13.324Z242.342° WSW39.502°2025-07-01 19:44:13.324Z123.696° SE
|